EWG299 EDDH-EDDC

Flight info

Callsign EWG299
Flight time 0h 47m
Altitude 27000
Route AMLUH2G AMLUH L619 BUMIL M748 OSKAN OSKAN4B
Aircraft A20N/M-SDE2E3FGHIRWXY/LB1

Departure

Time 2026-05-07 21:18
Airport Hamburg Helmut Schmidt Airport (EDDH)

Arrival

Time 2026-05-07 22:05
Airport Dresden Airport (EDDC)
Time Latitude Longitude Altitude Speed Heading
2026-05-07 20:52 53.63295 10.00354 53 ft 0 kts 87°
2026-05-07 21:10 53.63294 10.00339 53 ft 2 kts 87°
2026-05-07 21:10 53.63294 10.00312 53 ft 2 kts 87°
2026-05-07 21:10 53.63293 10.00284 53 ft 2 kts 89°
2026-05-07 21:11 53.63297 10.00256 51 ft 3 kts 128°
2026-05-07 21:11 53.63310 10.00238 51 ft 2 kts 166°
2026-05-07 21:11 53.63312 10.00237 52 ft 0 kts 171°
2026-05-07 21:14 53.63275 10.00239 50 ft 13 kts 178°
2026-05-07 21:14 53.63172 10.00252 52 ft 16 kts 175°
2026-05-07 21:14 53.63058 10.00247 50 ft 14 kts 203°
2026-05-07 21:14 53.63042 10.00231 50 ft 0 kts 213°
2026-05-07 21:15 53.63041 10.00230 50 ft 1 kts 213°
2026-05-07 21:15 53.62946 10.00132 49 ft 18 kts 211°
2026-05-07 21:15 53.62929 10.00112 49 ft 7 kts 214°
2026-05-07 21:15 53.62910 10.00046 48 ft 6 kts 288°
2026-05-07 21:16 53.62915 9.99977 49 ft 7 kts 257°
2026-05-07 21:16 53.62905 9.99938 47 ft 0 kts 242°
2026-05-07 21:16 53.62899 9.99917 49 ft 10 kts 242°
2026-05-07 21:17 53.62875 9.99743 48 ft 13 kts 310°
2026-05-07 21:17 53.62886 9.99729 50 ft 0 kts 331°
2026-05-07 21:17 53.62887 9.99728 50 ft 0 kts 331°
2026-05-07 21:17 53.62975 9.99647 50 ft 52 kts 332°
2026-05-07 21:18 53.63320 9.99357 52 ft 115 kts 333°
2026-05-07 21:18 53.64606 9.98225 551 ft 184 kts 335°
2026-05-07 21:18 53.65841 9.97179 1474 ft 206 kts 336°
2026-05-07 21:18 53.66678 9.96467 2428 ft 201 kts 335°
2026-05-07 21:19 53.67914 9.95411 3806 ft 200 kts 335°
2026-05-07 21:19 53.69255 9.94442 4611 ft 218 kts 346°
2026-05-07 21:19 53.71252 9.94548 4999 ft 219 kts 18°
2026-05-07 21:19 53.72180 9.95273 5020 ft 217 kts 35°
2026-05-07 21:20 53.73174 9.97152 5014 ft 216 kts 63°
2026-05-07 21:20 53.73717 9.99500 4998 ft 219 kts 73°
2026-05-07 21:20 53.74046 10.01989 5018 ft 215 kts 86°
2026-05-07 21:20 53.73860 10.04479 5024 ft 222 kts 109°
2026-05-07 21:21 53.73161 10.07001 5018 ft 249 kts 117°
2026-05-07 21:21 53.72286 10.09588 5011 ft 256 kts 119°
2026-05-07 21:21 53.71387 10.12191 5020 ft 257 kts 119°
2026-05-07 21:21 53.70500 10.14778 5017 ft 256 kts 118°
2026-05-07 21:22 53.69594 10.17377 5021 ft 256 kts 122°
2026-05-07 21:22 53.68432 10.19671 5014 ft 258 kts 137°
2026-05-07 21:22 53.66911 10.21211 5016 ft 261 kts 156°
2026-05-07 21:22 53.65179 10.22157 5019 ft 262 kts 162°
2026-05-07 21:23 53.63412 10.22953 5017 ft 262 kts 163°
2026-05-07 21:23 53.61642 10.23733 5011 ft 262 kts 163°
2026-05-07 21:23 53.59897 10.24510 5017 ft 262 kts 162°
2026-05-07 21:23 53.58126 10.25308 5016 ft 262 kts 162°
2026-05-07 21:24 53.56361 10.26109 5013 ft 262 kts 162°
2026-05-07 21:24 53.54598 10.26912 5014 ft 262 kts 162°
2026-05-07 21:24 53.52836 10.27716 5011 ft 262 kts 162°
2026-05-07 21:24 53.51097 10.28510 5007 ft 262 kts 162°
2026-05-07 21:25 53.49339 10.29312 5107 ft 262 kts 162°
2026-05-07 21:25 53.47559 10.30130 5873 ft 268 kts 162°
2026-05-07 21:25 53.45795 10.31159 7352 ft 262 kts 155°
2026-05-07 21:25 53.44215 10.32563 9039 ft 251 kts 146°
2026-05-07 21:26 53.42863 10.34318 10661 ft 241 kts 137°
2026-05-07 21:26 53.41768 10.36316 12155 ft 230 kts 128°
2026-05-07 21:26 53.40890 10.38504 13615 ft 222 kts 121°
2026-05-07 21:26 53.40147 10.40679 14893 ft 211 kts 119°
2026-05-07 21:27 53.39451 10.42881 15832 ft 217 kts 118°
2026-05-07 21:27 53.38751 10.45172 16702 ft 224 kts 117°
2026-05-07 21:27 53.38037 10.47520 17631 ft 228 kts 117°
2026-05-07 21:27 53.37305 10.49905 18559 ft 232 kts 118°
2026-05-07 21:28 53.36561 10.52300 19378 ft 236 kts 118°
2026-05-07 21:28 53.35791 10.54751 20210 ft 240 kts 118°
2026-05-07 21:28 53.35004 10.57240 21047 ft 243 kts 118°
2026-05-07 21:28 53.34199 10.59771 21843 ft 248 kts 119°
2026-05-07 21:29 53.33378 10.62345 22633 ft 253 kts 119°
2026-05-07 21:29 53.32552 10.64934 23404 ft 258 kts 119°
2026-05-07 21:29 53.31681 10.67658 23870 ft 275 kts 119°
2026-05-07 21:29 53.30729 10.70631 23980 ft 305 kts 119°
2026-05-07 21:30 53.29669 10.73939 23980 ft 338 kts 119°
2026-05-07 21:30 53.28510 10.77553 23987 ft 368 kts 119°
2026-05-07 21:30 53.27253 10.81473 23983 ft 395 kts 118°
2026-05-07 21:30 53.25925 10.85613 23984 ft 408 kts 119°
2026-05-07 21:31 53.24596 10.89753 23990 ft 409 kts 119°
2026-05-07 21:31 53.23246 10.93951 23994 ft 409 kts 119°
2026-05-07 21:31 53.21898 10.98136 23994 ft 409 kts 119°
2026-05-07 21:31 53.20547 11.02322 23992 ft 409 kts 119°
2026-05-07 21:32 53.19216 11.06435 23992 ft 409 kts 119°
2026-05-07 21:32 53.17863 11.10609 23993 ft 409 kts 119°
2026-05-07 21:32 53.16507 11.14785 23994 ft 408 kts 119°
2026-05-07 21:32 53.15151 11.18955 23992 ft 408 kts 119°
2026-05-07 21:33 53.13807 11.23073 23994 ft 408 kts 119°
2026-05-07 21:33 53.12250 11.27045 23992 ft 408 kts 128°
2026-05-07 21:33 53.10311 11.30505 23995 ft 407 kts 137°
2026-05-07 21:33 53.08184 11.33623 23992 ft 407 kts 141°
2026-05-07 21:34 53.06004 11.36549 23995 ft 407 kts 142°
2026-05-07 21:34 53.03757 11.39431 23991 ft 407 kts 143°
2026-05-07 21:34 53.01500 11.42276 23993 ft 406 kts 143°
2026-05-07 21:34 52.99243 11.45117 23992 ft 406 kts 143°
2026-05-07 21:35 52.96990 11.47965 23989 ft 406 kts 143°
2026-05-07 21:35 52.94776 11.50780 23990 ft 406 kts 143°
2026-05-07 21:35 52.92536 11.53640 23992 ft 406 kts 143°
2026-05-07 21:35 52.90288 11.56516 23993 ft 406 kts 143°
2026-05-07 21:36 52.88046 11.59387 23988 ft 406 kts 142°
2026-05-07 21:36 52.85836 11.62214 23986 ft 406 kts 142°
2026-05-07 21:36 52.83598 11.65074 23987 ft 406 kts 142°
2026-05-07 21:36 52.81355 11.67937 23992 ft 406 kts 142°
2026-05-07 21:37 52.79110 11.70797 23988 ft 406 kts 142°
2026-05-07 21:37 52.76871 11.73645 23988 ft 406 kts 142°
2026-05-07 21:37 52.74659 11.76454 23988 ft 406 kts 142°
2026-05-07 21:37 52.72411 11.79306 23985 ft 406 kts 142°
2026-05-07 21:38 52.70159 11.82158 23989 ft 406 kts 142°
2026-05-07 21:38 52.67913 11.84999 23988 ft 406 kts 142°
2026-05-07 21:38 52.65696 11.87799 23988 ft 406 kts 142°
2026-05-07 21:38 52.63460 11.90655 23987 ft 406 kts 141°
2026-05-07 21:39 52.61284 11.93641 23985 ft 406 kts 139°
2026-05-07 21:39 52.59155 11.96715 23984 ft 406 kts 138°
2026-05-07 21:39 52.57075 11.99785 23955 ft 409 kts 138°
2026-05-07 21:39 52.54934 12.02959 23970 ft 418 kts 138°
2026-05-07 21:40 52.52756 12.06176 23976 ft 423 kts 138°
2026-05-07 21:40 52.50550 12.09413 23980 ft 425 kts 138°
2026-05-07 21:40 52.48338 12.12638 23900 ft 422 kts 139°
2026-05-07 21:40 52.46162 12.15797 23188 ft 412 kts 139°
2026-05-07 21:41 52.43998 12.18926 21768 ft 417 kts 139°
2026-05-07 21:41 52.41793 12.22106 20222 ft 425 kts 139°
2026-05-07 21:41 52.39590 12.25278 19055 ft 427 kts 139°
2026-05-07 21:41 52.37400 12.28430 18633 ft 407 kts 139°
2026-05-07 21:42 52.35302 12.31445 18599 ft 398 kts 139°
2026-05-07 21:42 52.33272 12.34544 18828 ft 401 kts 136°
2026-05-07 21:42 52.31299 12.37789 18971 ft 401 kts 135°
2026-05-07 21:42 52.29365 12.41066 18974 ft 400 kts 134°
2026-05-07 21:43 52.27468 12.44333 18978 ft 402 kts 134°
2026-05-07 21:43 52.25524 12.47642 18975 ft 402 kts 135°
2026-05-07 21:43 52.23514 12.50816 18977 ft 402 kts 137°
2026-05-07 21:43 52.21460 12.53896 18972 ft 402 kts 138°
2026-05-07 21:44 52.19374 12.56950 18976 ft 402 kts 138°
2026-05-07 21:44 52.17285 12.59984 18974 ft 402 kts 138°
2026-05-07 21:44 52.15217 12.62990 18977 ft 402 kts 138°
2026-05-07 21:44 52.13137 12.66025 18978 ft 402 kts 138°
2026-05-07 21:45 52.11055 12.69073 18979 ft 402 kts 138°
2026-05-07 21:45 52.08977 12.72120 18976 ft 402 kts 138°
2026-05-07 21:45 52.06900 12.75170 18975 ft 402 kts 137°
2026-05-07 21:45 52.04823 12.78218 18973 ft 402 kts 137°
2026-05-07 21:46 52.02774 12.81222 18976 ft 401 kts 137°
2026-05-07 21:46 52.00694 12.84266 18976 ft 401 kts 137°
2026-05-07 21:46 51.98618 12.87301 18977 ft 401 kts 137°
2026-05-07 21:46 51.96544 12.90329 18979 ft 401 kts 137°
2026-05-07 21:47 51.94462 12.93363 18982 ft 401 kts 137°
2026-05-07 21:47 51.92386 12.96386 18985 ft 401 kts 137°
2026-05-07 21:47 51.90335 12.99367 18987 ft 400 kts 137°
2026-05-07 21:47 51.88258 13.02382 18988 ft 400 kts 137°
2026-05-07 21:48 51.86185 13.05387 18991 ft 400 kts 137°
2026-05-07 21:48 51.84120 13.08377 18758 ft 393 kts 137°
2026-05-07 21:48 51.82095 13.11305 17762 ft 389 kts 137°
2026-05-07 21:48 51.80060 13.14245 16335 ft 395 kts 137°
2026-05-07 21:49 51.77993 13.17228 14874 ft 401 kts 138°
2026-05-07 21:49 51.75905 13.20239 13504 ft 402 kts 138°
2026-05-07 21:49 51.73855 13.23192 12233 ft 398 kts 138°
2026-05-07 21:49 51.71801 13.26145 11044 ft 391 kts 138°
2026-05-07 21:50 51.69775 13.29054 9969 ft 387 kts 138°
2026-05-07 21:50 51.67766 13.31935 9128 ft 382 kts 138°
2026-05-07 21:50 51.65788 13.34767 8324 ft 377 kts 138°
2026-05-07 21:50 51.63868 13.37509 7414 ft 369 kts 138°
2026-05-07 21:51 51.61944 13.40251 6546 ft 367 kts 138°
2026-05-07 21:51 51.60038 13.42967 5719 ft 363 kts 138°
2026-05-07 21:51 51.58187 13.45602 5155 ft 352 kts 138°
2026-05-07 21:51 51.56406 13.48134 5018 ft 330 kts 138°
2026-05-07 21:52 51.54746 13.50491 4996 ft 306 kts 138°
2026-05-07 21:52 51.53209 13.52671 5001 ft 284 kts 138°
2026-05-07 21:52 51.51773 13.54707 4999 ft 267 kts 138°
2026-05-07 21:52 51.50396 13.56660 4998 ft 263 kts 138°
2026-05-07 21:53 51.49039 13.58582 4987 ft 253 kts 138°
2026-05-07 21:53 51.47785 13.60421 4987 ft 236 kts 134°
2026-05-07 21:53 51.46768 13.62329 4986 ft 220 kts 124°
2026-05-07 21:53 51.46010 13.64387 4989 ft 210 kts 114°
2026-05-07 21:54 51.45503 13.66550 5028 ft 202 kts 106°
2026-05-07 21:54 51.45145 13.68704 5007 ft 200 kts 103°
2026-05-07 21:54 51.44813 13.70875 5000 ft 200 kts 103°
2026-05-07 21:54 51.44490 13.73006 4996 ft 199 kts 103°
2026-05-07 21:55 51.44159 13.75167 4987 ft 199 kts 103°
2026-05-07 21:55 51.43824 13.77342 4640 ft 205 kts 103°
2026-05-07 21:55 51.43465 13.79664 4140 ft 227 kts 103°
2026-05-07 21:55 51.43070 13.82203 3991 ft 239 kts 103°
2026-05-07 21:56 51.42663 13.84808 3987 ft 238 kts 103°
2026-05-07 21:56 51.42280 13.87256 3991 ft 214 kts 103°
2026-05-07 21:56 51.41930 13.89490 4003 ft 203 kts 103°
2026-05-07 21:56 51.41587 13.91677 4000 ft 202 kts 103°
2026-05-07 21:57 51.41234 13.93831 3994 ft 203 kts 106°
2026-05-07 21:57 51.40730 13.95964 3539 ft 209 kts 115°
2026-05-07 21:57 51.39941 13.97985 2838 ft 218 kts 127°
2026-05-07 21:57 51.38860 13.99731 2251 ft 220 kts 140°
2026-05-07 21:58 51.37619 14.01001 2012 ft 206 kts 153°
2026-05-07 21:58 51.36321 14.01800 2002 ft 192 kts 163°
2026-05-07 21:58 51.35073 14.02168 1999 ft 171 kts 174°
2026-05-07 21:58 51.33980 14.02191 2026 ft 146 kts 183°
2026-05-07 21:59 51.32989 14.01982 2012 ft 143 kts 191°
2026-05-07 21:59 51.32034 14.01557 2038 ft 145 kts 200°
2026-05-07 21:59 51.31114 14.00893 2046 ft 145 kts 210°
2026-05-07 21:59 51.30278 13.99986 2052 ft 145 kts 218°
2026-05-07 22:00 51.29497 13.98962 2054 ft 145 kts 220°
2026-05-07 22:00 51.28728 13.97899 1939 ft 146 kts 221°
2026-05-07 22:00 51.27974 13.96853 1806 ft 145 kts 221°
2026-05-07 22:00 51.27207 13.95807 1687 ft 145 kts 221°
2026-05-07 22:01 51.26439 13.94767 1542 ft 144 kts 221°
2026-05-07 22:01 51.25676 13.93725 1439 ft 142 kts 222°
2026-05-07 22:01 51.24910 13.92667 1632 ft 157 kts 222°
2026-05-07 22:01 51.24053 13.91472 1785 ft 162 kts 221°
2026-05-07 22:02 51.23216 13.90311 1790 ft 157 kts 221°
2026-05-07 22:02 51.22405 13.89192 1780 ft 147 kts 221°
2026-05-07 22:02 51.21639 13.88135 1845 ft 144 kts 221°
2026-05-07 22:02 51.20894 13.87106 2014 ft 140 kts 221°
2026-05-07 22:03 51.20156 13.86084 2052 ft 140 kts 222°
2026-05-07 22:03 51.19429 13.85077 2050 ft 140 kts 222°
2026-05-07 22:03 51.18667 13.84021 2004 ft 150 kts 222°
2026-05-07 22:03 51.17880 13.82934 1743 ft 145 kts 221°
2026-05-07 22:04 51.17132 13.81903 1498 ft 139 kts 222°
2026-05-07 22:04 51.16410 13.80881 1303 ft 138 kts 223°
2026-05-07 22:04 51.15690 13.79869 1116 ft 138 kts 221°
2026-05-07 22:04 51.14953 13.78894 958 ft 140 kts 221°
2026-05-07 22:05 51.14218 13.77906 727 ft 135 kts 222°
2026-05-07 22:05 51.13583 13.77004 731 ft 102 kts 221°
2026-05-07 22:05 51.13360 13.76750 737 ft 0 kts 158°
2026-05-07 22:05 51.13314 13.76840 736 ft 0 kts 130°
2026-05-07 22:06 51.13296 13.76873 736 ft 9 kts 131°
2026-05-07 22:06 51.13226 13.76957 735 ft 11 kts 167°
2026-05-07 22:06 51.13175 13.76920 740 ft 13 kts 219°
2026-05-07 22:06 51.13111 13.76835 743 ft 20 kts 220°
2026-05-07 22:07 51.13011 13.76696 744 ft 18 kts 220°
2026-05-07 22:07 51.12894 13.76535 745 ft 16 kts 222°
2026-05-07 22:07 51.12805 13.76458 750 ft 13 kts 172°
2026-05-07 22:07 51.12762 13.76512 752 ft 12 kts 132°
2026-05-07 22:08 51.12712 13.76598 752 ft 9 kts 133°
2026-05-07 22:08 51.12691 13.76665 753 ft 8 kts 105°
2026-05-07 22:08 51.12703 13.76715 753 ft 13 kts 56°
2026-05-07 22:08 51.12743 13.76773 753 ft 0 kts 40°
2026-05-07 22:09 51.12745 13.76776 753 ft 0 kts 40°